{"data":{"norad_id":59521,"epoch":"2026-05-25T00:11:35.299680Z","epoch_age_seconds":84237,"freshness":"FRESH","line1":"1 59521U 24073L   26145.00804745  .00000500  00000+0  27728-4 0  9998","line2":"2 59521  43.0056 247.3478 0002599 275.9629  84.0926 15.27572476117848","mean_motion":15.27572476,"eccentricity":0.0002599,"inclination_deg":43.0056,"raan_deg":247.3478,"arg_perigee_deg":275.9629,"mean_anomaly_deg":84.0926,"bstar":2.7728e-5,"rev_number":11784,"period_min":94.267213020929,"perigee_km":481.28839757305,"apogee_km":484.85485381669,"semimajor_km":6861.2086256949,"source":"CELESTRAK","updated_at":"2026-05-25T13:38:18.975603Z"}}